Weather Roundup
Issued by NWS Springfield, MO

Home | Current Version | Previous Version | Text Only | Print | Product List | Glossary On
Versions: 1 2 3 4 5 6 7 8 9 10 11 12 13 14 15 16 17 18 19 20 21 22 23 24 25 26 27 28 29 30 31 32 33 34 35 36 37 38 39 40 41 42 43 44 45 46 47 48 49 50
000
NZUS99 KSGF 230307
HRRSGF

HOURLY WEATHER
NATIONAL WEATHER SERVICE SPRINGFIELD MO
1000 PM CDT TUE APR 22 2014

......SGF CWA......

CITY           SKY/WX    TMP DP  RH WIND       PRES   REMARKS
SPRINGFIELD    CLEAR     56  38  50 N5        30.00R
JOPLIN         CLEAR     52  42  69 NE3       30.01R
WEST PLAINS    CLEAR     58  31  35 N5        30.00R
ROLLA          CLEAR     52  34  50 CALM      30.01R
OSAGE BEACH    CLEAR     54  34  47 NE5       30.04R
BRANSON        CLEAR     59  37  44 CALM      30.01R

......SURROUNDING SGF CWA......

CITY           SKY/WX    TMP DP  RH WIND       PRES   REMARKS
CHANUTE        PTCLDY    57  37  47 E7        29.99R
PARSONS        PTCLDY    53  37  54 CALM      29.99R
COFFEYVILLE    PTCLDY    58  37  45 E3        29.98R
EMPORIA        PTCLDY    56  35  45 SE7       29.97R
GROVE OK       CLEAR     59  43  55 CALM      30.00S
ROGERS AR      CLEAR     59  38  45 NE3       30.01R
SILOAM SPRINGS CLEAR     57  37  47 NE5       30.01R
HARRISON AR    CLEAR     57  35  43 CALM      30.00R
NEAR YELLVILLE CLEAR     57  36  44 N3        29.98S

......KANSAS AND MISSOURI......

CITY           SKY/WX    TMP DP  RH WIND       PRES   REMARKS
KANSAS CTY INT CLEAR     61  32  33 E12       30.00S
DOWNTOWN KC    CLEAR     61  33  35 E5        30.00R
COLUMBIA       CLEAR     55  35  47 NE7       30.02R
SEDALIA        PTCLDY    57  36  45 SE5       30.02S
ST JOSEPH      MOCLDY    60  34  37 E6        30.00R
ST LOUIS       CLEAR     59  36  42 NW3       30.02R
SPIRIT OF STL  CLEAR     50  40  68 CALM      30.02R
KIRKSVILLE     CLEAR     49  33  54 CALM      30.04R
WICHITA        CLOUDY    63  32  31 SE8       29.96R
TOPEKA         CLEAR     61  34  36 E3        29.99R
OLATHE         CLEAR     58  31  35 SE6       30.00R

......TENNESSEE......

CITY           SKY/WX    TMP DP  RH WIND       PRES   REMARKS
MEMPHIS        CLEAR     65  43  44 NE6       29.96R
NASHVILLE      CLEAR     63  39  41 N7        29.94R

......ARKANSAS.......

CITY           SKY/WX    TMP DP  RH WIND       PRES   REMARKS
FAYETTEVILLE   CLEAR     52  44  74 CALM      30.00R
FT SMITH       CLEAR     66  37  34 CALM      29.96R
LITTLE ROCK    CLEAR     64  46  52 CALM      29.95R

......OKLAHOMA.......

CITY           SKY/WX    TMP DP  RH WIND       PRES   REMARKS
TULSA          PTCLDY    63  40  42 E5        29.96R
PONCA CITY     PTCLDY    65  34  31 SE13      29.95R
MCALESTER      PTCLDY    56  46  69 CALM      29.98R
OKLAHOMA CITY  PTCLDY    60  42  51 SE8       29.95R

......IOWA............

CITY           SKY/WX    TMP DP  RH WIND       PRES   REMARKS
DES MOINES     MOCLDY    59  32  36 E8        30.05R
QUAD CITIES    CLEAR     53  26  35 CALM      30.04R

......ILLINOIS........

CITY           SKY/WX    TMP DP  RH WIND       PRES   REMARKS
QUINCY         CLEAR     52  30  43 N8        30.02S
CHICAGO        CLEAR     41  26  55 E9        30.07R



USA.gov is the U.S. government's official web portal to all federal, state and local government web resources and services.